FW1349 Weather Reports


Display with metric or nautical units.
time (UTC)temp
F
wind
direction
speed
MPH
gust
MPH
rain 1hr
in
rain 24hr
in
rain mn
in
humidity
%
barometer
mb
20260503173017 70 90 5.0 12.0 0.00 0.00 0.00 36
20260503172017 70 68 4.0 9.0 0.00 0.00 0.00 36
20260503171038 70 90 4.0 11.0 0.00 0.00 0.00 39
20260503131016 55 68 2.0 8.0 0.00 0.00 0.00 54
20260503081017 59 180 1.0 4.0 0.00 0.00 0.00 45
20260503072016 61 270 4.0 11.0 0.00 0.00 0.00 46
20260503071037 61 248 4.0 19.0 0.00 0.00 0.00 48
20260503054537 57 270 1.0 4.0 0.00 0.00 0.00 49
20260503053537 57 90 1.0 2.0 0.00 0.00 0.00 48
20260503052517 57 90 1.0 3.0 0.00 0.00 0.00 48
20260503051516 58 270 1.0 3.0 0.00 0.00 0.00 48
20260503050516 58 0.0 2.0 0.00 0.00 0.00 47
20260503045516 58 315 1.0 4.0 0.00 0.00 0.00 46
20260503044516 59 203 1.0 3.0 0.00 0.00 0.00 46
20260503043515 59 315 1.0 5.0 0.00 0.00 0.00 45
20260503042515 59 248 1.0 3.0 0.00 0.00 0.00 45
20260503041515 59 180 1.0 3.0 0.00 0.00 0.00 45
20260503040517 60 180 1.0 3.0 0.00 0.00 0.00 44
20260503035517 60 158 1.0 3.0 0.00 0.00 0.00 43
20260503034538 61 0.0 1.0 0.00 0.00 0.00 43
20260503033517 61 0.0 2.0 0.00 0.00 0.00 43
20260503032518 62 0.0 1.0 0.00 0.00 0.00 41
20260503031517 62 293 1.0 2.0 0.00 0.00 0.00 41
20260503030517 62 293 1.0 3.0 0.00 0.00 0.00 40
20260503025517 62 225 1.0 3.0 0.00 0.00 0.00 42
20260503024538 63 225 1.0 6.0 0.00 0.00 0.00 40
20260503023517 63 270 1.0 3.0 0.00 0.00 0.00 39
20260503022518 63 90 1.0 3.0 0.00 0.00 0.00 39
20260503021517 63 0.0 1.0 0.00 0.00 0.00 40
20260503020517 64 0.0 1.0 0.00 0.00 0.00 39
20260503015517 64 23 1.0 2.0 0.00 0.00 0.00 38
20260503014517 64 293 2.0 5.0 0.00 0.00 0.00 38
20260503013517 64 68 1.0 7.0 0.00 0.00 0.00 37
20260503012516 64 135 1.0 5.0 0.00 0.00 0.00 38
20260503011537 64 203 1.0 3.0 0.00 0.00 0.00 39
20260503010516 64 0.0 1.0 0.00 0.00 0.00 38
20260503005516 64 68 1.0 3.0 0.00 0.00 0.00 37
20260503004617 64 158 1.0 3.0 0.00 0.00 0.00 39
20260503003516 64 225 1.0 4.0 0.00 0.00 0.00 41
20260503002537 65 135 2.0 6.0 0.00 0.00 0.00 41
20260503001516 65 113 3.0 16.0 0.00 0.00 0.00 38
20260503000517 66 0 1.0 3.0 0.00 0.00 0.00 36
20260502235516 66 90 3.0 8.0 0.00 0.00 0.00 35
20260502234517 67 68 4.0 11.0 0.00 0.00 0.00 33
20260502233516 67 68 2.0 6.0 0.00 0.00 0.00 33
20260502232516 67 90 1.0 3.0 0.00 0.00 0.00 33
20260502231516 67 90 1.0 5.0 0.00 0.00 0.00 32
20260502230517 68 23 1.0 5.0 0.00 0.00 0.00 31
20260502225537 68 270 2.0 4.0 0.00 0.00 0.00 30
20260502224516 68 68 3.0 10.0 0.00 0.00 0.00 30
20260502223516 68 68 2.0 5.0 0.00 0.00 0.00 30
20260502222516 68 68 2.0 5.0 0.00 0.00 0.00 31
20260502221516 68 68 2.0 7.0 0.00 0.00 0.00 30
20260502220517 68 68 1.0 4.0 0.00 0.00 0.00 31
20260502215516 68 158 2.0 5.0 0.00 0.00 0.00 31
20260502214516 68 0 4.0 12.0 0.00 0.00 0.00 30
20260502213516 69 90 3.0 8.0 0.00 0.00 0.00 30
20260502212516 69 90 2.0 4.0 0.00 0.00 0.00 30
20260502211515 69 270 1.0 3.0 0.00 0.00 0.00 29
20260502210515 69 315 3.0 9.0 0.00 0.00 0.00 30
20260502205516 69 90 5.0 11.0 0.00 0.00 0.00 29
20260502204516 69 23 3.0 9.0 0.00 0.00 0.00 29
20260502203516 69 248 2.0 8.0 0.00 0.00 0.00 29
20260502202515 69 90 2.0 5.0 0.00 0.00 0.00 30
20260502201515 69 90 2.0 6.0 0.00 0.00 0.00 30
20260502200516 68 68 2.0 6.0 0.00 0.00 0.00 30
20260502195517 67 293 4.0 11.0 0.00 0.00 0.00 30
20260502194518 67 225 3.0 5.0 0.00 0.00 0.00 30
20260502193517 66 68 4.0 10.0 0.00 0.00 0.00 31
20260502192517 66 0 2.0 7.0 0.00 0.00 0.00 31
20260502191537 66 293 3.0 8.0 0.00 0.00 0.00 31
20260502190538 66 248 3.0 8.0 0.00 0.00 0.00 30
20260502185517 65 113 2.0 5.0 0.00 0.00 0.00 31
20260502184518 65 68 3.0 6.0 0.00 0.00 0.00 30
20260502183517 65 315 4.0 10.0 0.00 0.00 0.00 31
20260502182517 64 23 2.0 5.0 0.00 0.00 0.00 33
20260502181518 63 293 2.0 6.0 0.00 0.00 0.00 34
20260502180517 63 270 4.0 8.0 0.00 0.00 0.00 32